| time (UTC) | temp F | wind direction | speed knots | gust knots | rain 1hr in | rain 24hr in | rain mn in | humidity % | barometer mb |
| 20260505121628 | 48 | 59 | 5.2 | 8.7 | 0.00 | 0.00 | 0.00 | 60 | 1007.5 |
| 20260505120632 | 49 | 50 | 2.6 | 4.3 | 0.00 | 0.00 | 0.00 | 59 | 1007.3 |
| 20260505115632 | 49 | 94 | 3.5 | 6.1 | 0.00 | 0.00 | 0.00 | 57 | 1007.1 |
| 20260505114619 | 50 | 91 | 2.6 | 5.2 | 0.00 | 0.00 | 0.00 | 56 | 1006.9 |
| 20260505113612 | 49 | 46 | 2.6 | 4.3 | 0.00 | 0.00 | 0.00 | 57 | 1006.9 |
| 20260505112621 | 47 | 30 | 1.7 | 3.5 | 0.00 | 0.00 | 0.00 | 59 | 1006.7 |
| 20260505111628 | 47 | 30 | 3.5 | 4.3 | 0.00 | 0.00 | 0.00 | 59 | 1006.6 |
| 20260505110616 | 46 | 28 | 4.3 | 7.0 | 0.00 | 0.00 | 0.00 | 60 | 1006.7 |
| 20260505101624 | 44 | 20 | 4.3 | 6.1 | 0.00 | 0.00 | 0.00 | 62 | 1006.7 |
| 20260505100613 | 45 | 5 | 2.6 | 3.5 | 0.00 | 0.00 | 0.00 | 62 | 1006.8 |
| 20260505095612 | 46 | 349 | 2.6 | 5.2 | 0.00 | 0.00 | 0.00 | 59 | 1006.8 |
| 20260505094620 | 47 | 360 | 2.6 | 5.2 | 0.00 | 0.00 | 0.00 | 60 | 1006.9 |
| 20260505093626 | 48 | 355 | 4.3 | 5.2 | 0.00 | 0.00 | 0.00 | 57 | 1006.7 |
| 20260505092615 | 49 | 328 | 4.3 | 7.8 | 0.00 | 0.00 | 0.00 | 56 | 1006.7 |
| 20260505091614 | 50 | 327 | 5.2 | 7.8 | 0.00 | 0.00 | 0.00 | 55 | 1006.7 |
| 20260505090641 | 50 | 318 | 4.3 | 7.8 | 0.00 | 0.00 | 0.00 | 55 | 1006.9 |
| 20260505085640 | 49 | 317 | 6.1 | 7.8 | 0.00 | 0.00 | 0.00 | 58 | 1007.0 |
| 20260505084627 | 47 | 327 | 5.2 | 7.8 | 0.00 | 0.00 | 0.00 | 60 | 1007.1 |
| 20260505083618 | 47 | 342 | 5.2 | 7.8 | 0.00 | 0.00 | 0.00 | 58 | 1007.0 |
| 20260505082629 | 46 | 336 | 5.2 | 7.0 | 0.00 | 0.00 | 0.00 | 59 | 1007.0 |
| 20260505081618 | 45 | 355 | 4.3 | 5.2 | 0.00 | 0.00 | 0.00 | 62 | 1007.0 |
| 20260505080612 | 45 | 5 | 3.5 | 5.2 | 0.00 | 0.00 | 0.00 | 60 | 1007.1 |
| 20260505075628 | 47 | 5 | 4.3 | 5.2 | 0.00 | 0.00 | 0.00 | 56 | 1007.3 |
| 20260505074613 | 47 | 5 | 4.3 | 7.0 | 0.00 | 0.00 | 0.00 | 57 | 1007.4 |
| 20260505073640 | 48 | 355 | 5.2 | 7.0 | 0.00 | 0.00 | 0.00 | 55 | 1007.3 |
| 20260505072626 | 48 | 360 | 3.5 | 4.3 | 0.00 | 0.00 | 0.00 | 55 | 1007.4 |
| 20260505071616 | 49 | 343 | 4.3 | 7.0 | 0.00 | 0.00 | 0.00 | 53 | 1007.4 |
| 20260505070624 | 51 | 347 | 3.5 | 5.2 | 0.00 | 0.00 | 0.00 | 50 | 1007.5 |
| 20260505065618 | 52 | 322 | 4.3 | 5.2 | 0.00 | 0.00 | 0.00 | 50 | 1007.5 |
| 20260505064626 | 53 | 336 | 1.7 | 4.3 | 0.00 | 0.00 | 0.00 | 46 | 1007.5 |
| 20260505063652 | 55 | 360 | 0.9 | 4.3 | 0.00 | 0.00 | 0.00 | 44 | 1007.6 |
| 20260505062618 | 56 | 9 | 2.6 | 5.2 | 0.00 | 0.00 | 0.00 | 42 | 1007.5 |
| 20260505061620 | 57 | 84 | 1.7 | 7.0 | 0.00 | 0.00 | 0.00 | 41 | 1007.5 |
| 20260505060623 | 58 | 25 | 3.5 | 5.2 | 0.00 | 0.00 | 0.00 | 41 | 1007.5 |
| 20260505055619 | 58 | 41 | 2.6 | 7.0 | 0.00 | 0.00 | 0.00 | 40 | 1007.5 |
| 20260505054631 | 59 | 185 | 3.5 | 8.7 | 0.00 | 0.00 | 0.00 | 39 | 1007.3 |
| 20260505053619 | 59 | 155 | 5.2 | 15.6 | 0.00 | 0.00 | 0.00 | 36 | 1007.3 |
| 20260505052627 | 59 | 113 | 10.4 | 19.1 | 0.00 | 0.00 | 0.00 | 39 | 1007.9 |
| 20260505051631 | 61 | 161 | 4.3 | 7.8 | 0.00 | 0.00 | 0.00 | 37 | 1007.8 |
| 20260505050622 | 62 | 167 | 3.5 | 6.1 | 0.00 | 0.00 | 0.00 | 34 | 1007.9 |
| 20260505041631 | 62 | 21 | 7.0 | 17.4 | 0.00 | 0.00 | 0.00 | 30 | 1006.8 |
| 20260505040638 | 63 | 57 | 6.1 | 14.8 | 0.00 | 0.00 | 0.00 | 28 | 1006.6 |
| 20260505035618 | 63 | 35 | 10.4 | 15.6 | 0.00 | 0.00 | 0.00 | 29 | 1006.5 |
| 20260505034648 | 63 | 25 | 7.8 | 12.2 | 0.00 | 0.00 | 0.00 | 28 | 1006.4 |
| 20260505033614 | 63 | 360 | 5.2 | 10.4 | 0.00 | 0.00 | 0.00 | 28 | 1006.3 |
| 20260505032624 | 63 | 48 | 5.2 | 7.8 | 0.00 | 0.00 | 0.00 | 27 | 1006.2 |
| 20260505031615 | 63 | 26 | 4.3 | 10.4 | 0.00 | 0.00 | 0.00 | 27 | 1006.2 |
| 20260505030622 | 63 | 56 | 4.3 | 8.7 | 0.00 | 0.00 | 0.00 | 29 | 1006.0 |
| 20260505025622 | 63 | 57 | 3.5 | 9.6 | 0.00 | 0.00 | 0.00 | 29 | 1006.0 |
| 20260505024628 | 64 | 71 | 3.5 | 9.6 | 0.00 | 0.00 | 0.00 | 30 | 1006.0 |
| 20260505023612 | 64 | 55 | 7.8 | 11.3 | 0.00 | 0.00 | 0.00 | 30 | 1005.8 |
| 20260505022619 | 63 | 52 | 7.0 | 10.4 | 0.00 | 0.00 | 0.00 | 30 | 1005.6 |
| 20260505021633 | 64 | 45 | 4.3 | 7.8 | 0.00 | 0.00 | 0.00 | 30 | 1005.5 |
| 20260505020622 | 65 | 76 | 2.6 | 8.7 | 0.00 | 0.00 | 0.00 | 28 | 1005.5 |
| 20260505015616 | 65 | 75 | 2.6 | 5.2 | 0.00 | 0.00 | 0.00 | 27 | 1005.4 |
| 20260505014618 | 65 | 104 | 2.6 | 5.2 | 0.00 | 0.00 | 0.00 | 27 | 1005.4 |
| 20260505013649 | 66 | 104 | 3.5 | 6.1 | 0.00 | 0.00 | 0.00 | 27 | 1005.4 |
| 20260505012632 | 66 | 124 | 4.3 | 7.8 | 0.00 | 0.00 | 0.00 | 25 | 1005.4 |
| 20260505011639 | 67 | 119 | 5.2 | 11.3 | 0.00 | 0.00 | 0.00 | 25 | 1005.4 |
| 20260505010624 | 67 | 151 | 6.1 | 11.3 | 0.00 | 0.00 | 0.00 | 24 | 1005.5 |
| 20260505005625 | 68 | 152 | 7.8 | 10.4 | 0.00 | 0.00 | 0.00 | 23 | 1005.5 |
| 20260505004614 | 68 | 126 | 6.1 | 12.2 | 0.00 | 0.00 | 0.00 | 22 | 1005.5 |
| 20260505003619 | 68 | 93 | 2.6 | 8.7 | 0.00 | 0.00 | 0.00 | 20 | 1005.5 |
| 20260505002628 | 68 | 102 | 4.3 | 8.7 | 0.00 | 0.00 | 0.00 | 21 | 1005.5 |
| 20260505001638 | 68 | 105 | 4.3 | 8.7 | 0.00 | 0.00 | 0.00 | 20 | 1005.6 |
| 20260505000630 | 68 | 38 | 5.2 | 10.4 | 0.00 | 0.00 | 0.00 | 22 | 1005.6 |
| 20260504235627 | 68 | 63 | 7.8 | 16.5 | 0.00 | 0.00 | 0.00 | 22 | 1005.7 |
| 20260504234614 | 68 | 49 | 6.1 | 14.8 | 0.00 | 0.00 | 0.00 | 22 | 1005.7 |
| 20260504233622 | 67 | 51 | 13.0 | 20.0 | 0.00 | 0.00 | 0.00 | 24 | 1005.8 |
| 20260504232612 | 68 | 21 | 13.0 | 18.2 | 0.00 | 0.00 | 0.00 | 24 | 1005.6 |
| 20260504231619 | 69 | 333 | 7.0 | 8.7 | 0.00 | 0.00 | 0.00 | 20 | 1005.6 |
| 20260504230627 | 70 | 180 | 6.1 | 21.7 | 0.00 | 0.00 | 0.00 | 19 | 1005.7 |
| 20260504225616 | 72 | 169 | 11.3 | 16.5 | 0.00 | 0.00 | 0.00 | 19 | 1005.6 |
| 20260504224629 | 72 | 84 | 7.8 | 14.8 | 0.00 | 0.00 | 0.00 | 18 | 1005.6 |
| 20260504223616 | 71 | 190 | 3.5 | 15.6 | 0.00 | 0.00 | 0.00 | 19 | 1005.6 |
| 20260504222642 | 71 | 123 | 9.6 | 24.3 | 0.00 | 0.00 | 0.00 | 20 | 1005.8 |
| 20260504221644 | 73 | 202 | 6.1 | 14.8 | 0.00 | 0.00 | 0.00 | 18 | 1005.7 |
| 20260504220630 | 73 | 179 | 7.8 | 13.9 | 0.00 | 0.00 | 0.00 | 18 | 1005.8 |
| 20260504215652 | 73 | 213 | 6.1 | 11.3 | 0.00 | 0.00 | 0.00 | 18 | 1006.1 |
| 20260504214621 | 72 | 97 | 2.6 | 11.3 | 0.00 | 0.00 | 0.00 | 18 | 1006.2 |
| 20260504213631 | 72 | 331 | 5.2 | 8.7 | 0.00 | 0.00 | 0.00 | 18 | 1006.3 |
| 20260504212618 | 72 | 273 | 7.0 | 10.4 | 0.00 | 0.00 | 0.00 | 18 | 1006.5 |
| 20260504211630 | 73 | 264 | 5.2 | 8.7 | 0.00 | 0.00 | 0.00 | 17 | 1006.6 |
| 20260504210616 | 72 | 281 | 7.0 | 9.6 | 0.00 | 0.00 | 0.00 | 17 | 1006.6 |
| 20260504205629 | 69 | 311 | 3.5 | 8.7 | 0.00 | 0.00 | 0.00 | 19 | 1006.9 |
| 20260504204619 | 69 | 129 | 4.3 | 10.4 | 0.00 | 0.00 | 0.00 | 20 | 1006.9 |
| 20260504203613 | 69 | 213 | 4.3 | 8.7 | 0.00 | 0.00 | 0.00 | 20 | 1007.1 |
| 20260504202620 | 69 | 273 | 2.6 | 6.1 | 0.00 | 0.00 | 0.00 | 19 | 1007.1 |
| 20260504201627 | 70 | 56 | 3.5 | 11.3 | 0.00 | 0.00 | 0.00 | 19 | 1007.3 |
| 20260504200653 | 70 | 138 | 6.1 | 12.2 | 0.00 | 0.00 | 0.00 | 19 | 1007.5 |
| 20260504195650 | 71 | 53 | 9.6 | 16.5 | 0.00 | 0.00 | 0.00 | 19 | 1007.5 |
| 20260504194621 | 70 | 52 | 7.0 | 13.9 | 0.00 | 0.00 | 0.00 | 18 | 1007.6 |
| 20260504193630 | 71 | 148 | 5.2 | 11.3 | 0.00 | 0.00 | 0.00 | 21 | 1007.7 |
| 20260504192617 | 71 | 98 | 4.3 | 10.4 | 0.00 | 0.00 | 0.00 | 20 | 1007.8 |
| 20260504191644 | 70 | 104 | 1.7 | 8.7 | 0.00 | 0.00 | 0.00 | 19 | 1008.0 |
| 20260504190613 | 71 | 162 | 4.3 | 9.6 | 0.00 | 0.00 | 0.00 | 20 | 1008.2 |
| 20260504185635 | 70 | 148 | 7.8 | 10.4 | 0.00 | 0.00 | 0.00 | 21 | 1008.2 |
| 20260504184624 | 70 | 117 | 7.8 | 11.3 | 0.00 | 0.00 | 0.00 | 21 | 1008.4 |
| 20260504183650 | 70 | 188 | 2.6 | 5.2 | 0.00 | 0.00 | 0.00 | 21 | 1008.5 |
| 20260504182622 | 69 | 91 | 6.1 | 9.6 | 0.00 | 0.00 | 0.00 | 22 | 1008.7 |
| 20260504181613 | 68 | 102 | 2.6 | 8.7 | 0.00 | 0.00 | 0.00 | 23 | 1008.8 |
| 20260504180641 | 68 | 77 | 2.6 | 7.0 | 0.00 | 0.00 | 0.00 | 24 | 1008.9 |
| 20260504175617 | 68 | 111 | 4.3 | 7.8 | 0.00 | 0.00 | 0.00 | 25 | 1009.0 |
| 20260504174622 | 68 | 188 | 5.2 | 7.0 | 0.00 | 0.00 | 0.00 | 25 | 1009.1 |
| 20260504173627 | 67 | 321 | 1.7 | 7.8 | 0.00 | 0.00 | 0.00 | 26 | 1009.1 |
| 20260504172618 | 66 | 225 | 4.3 | 8.7 | 0.00 | 0.00 | 0.00 | 26 | 1009.2 |
| 20260504171627 | 65 | 84 | 1.7 | 7.0 | 0.00 | 0.00 | 0.00 | 27 | 1009.2 |
| 20260504170612 | 65 | 209 | 1.7 | 7.0 | 0.00 | 0.00 | 0.00 | 27 | 1009.3 |
| 20260504150626 | 61 | 176 | 7.0 | 10.4 | 0.00 | 0.00 | 0.00 | 33 | 1009.4 |
| 20260504140618 | 60 | 284 | 1.7 | 3.5 | 0.00 | 0.00 | 0.00 | 26 | 1009.1 |
| 20260504130620 | 48 | 355 | 4.3 | 7.0 | 0.00 | 0.00 | 0.00 | 35 | 1009.1 |